[[{"header":{"parameterUnit":"m.s-1","parameterCategory":1,"la1":30.2991,"la2":30.254,"lo1":-89.0895,"lo2":-89.0444,"dy":0.0017,"dx":0.0017,"nx":28,"ny":28,"refTime":"2024-04-29T03:00:00:Z","depth":0,"parameterNumber":2,"parameterNumberName":"U-component_of_WINDS"},"data":[0,0,0,0,0,0,0,0,0,0,0,0,0,0,0,0,0,0,0,0,0,0,0,0,0,0,0,0,0,0,0,0,0,0,0,0,0,0,0,0,0,0,0,0,0,0,0,0,0,0,0,0,0,0,0,0,0,0,-5.6887,-5.6888,0,-5.7023,-5.7024,-5.7026,-5.7052,-5.7051,-5.705,-5.7049,-5.7186,-5.7191,-5.7195,0,0,0,0,0,0,0,0,0,0,0,0,0,-5.665,-5.6654,-5.6886,-5.6888,-5.689,-5.7022,-5.7024,-5.7026,-5.7052,-5.7051,-5.7049,-5.7048,-5.7185,-5.719,-5.7196,0,0,0,0,0,0,0,0,0,0,0,0,0,-5.6766,-5.6655,-5.6886,-5.6919,-5.6923,-5.7022,-5.7024,-5.7027,-5.7052,-5.7051,-5.7049,-5.7048,-5.7183,-5.719,-5.7197,-5.7272,0,0,-5.7218,-5.7221,0,0,0,0,0,0,0,0,-5.6759,-5.6774,-5.6912,-5.6917,-5.6922,-5.7019,-5.6991,-5.7109,-5.7053,-5.7003,-5.7049,-5.7047,-5.7132,-5.7143,-5.7172,-5.7278,-5.7284,-5.7219,-5.7223,-5.7226,-5.7228,0,0,0,0,0,0,0,-5.6751,-5.6769,-5.694,-5.6914,-5.692,-5.6927,-5.6942,-5.7014,-5.7075,-5.7007,-5.701,-5.7026,-5.7134,-5.7165,-5.7175,-5.7286,-5.7218,-5.7225,-5.7229,-5.7232,-5.7462,-5.7464,0,0,0,0,0,0,-5.6737,-5.6762,-5.6936,-5.6944,-5.6835,-5.6932,-5.6949,-5.6989,-5.7074,-5.7085,-5.7027,-5.7026,-5.7154,-5.7167,-5.718,-5.7273,-5.7226,-5.7232,-5.7236,-5.7461,-5.7463,-5.7465,0,0,0,0,0,0,-5.6732,-5.6753,-5.693,-5.6854,-5.6877,-5.6938,-5.6983,-5.6993,-5.7024,-5.7089,-5.71,-5.7047,-5.7153,-5.717,-5.7249,-5.7278,-5.7235,-5.7242,-5.7458,-5.7461,-5.7464,-5.746,0,0,0,0,0,0,-5.6725,-5.6751,-5.6779,-5.6854,-5.6881,-5.6997,-5.6985,-5.6996,-5.7036,-5.7036,-5.7111,-5.7121,-5.7153,-5.7239,-5.7256,-5.7287,-5.7247,-5.7456,-5.746,-5.7463,-5.7458,-5.7463,-5.7467,0,0,0,0,0,-5.6717,-5.6772,-5.6781,-5.6801,-5.6918,-5.6998,-5.7014,-5.7049,-5.7038,-5.7068,-5.711,-5.7119,-5.7273,-5.7246,-5.7266,-5.73,-5.7454,-5.7458,-5.7463,-5.7456,-5.7462,-5.7467,0,0,0,0,0,0,-5.6698,-5.6783,-5.6793,-5.6874,-5.6929,-5.7003,-5.7041,-5.7054,-5.7113,-5.7111,-5.7153,-5.717,-5.7246,-5.7282,-5.725,-5.7378,-5.7363,-5.7372,-5.7351,-5.7357,-5.7362,-5.735,-5.7253,0,0,0,0,0,-5.6704,-5.6762,-5.6833,-5.6898,-5.6925,-5.6979,-5.7015,-5.7038,-5.7096,-5.7119,-5.7167,-5.7223,-5.7284,-5.7323,-5.7383,-5.7465,-5.7481,-5.7498,-5.7503,-5.7506,-5.7512,-5.7558,-5.7566,-5.7479,-5.7479,-5.7479,0,0,-5.6715,-5.6769,-5.6803,-5.6896,-5.6941,-5.7,-5.6998,-5.706,-5.7104,-5.7129,-5.7205,-5.7243,-5.7309,-5.7389,-5.7427,-5.7421,-5.754,-5.7512,-5.7514,-5.7518,-5.7563,-5.7571,-5.7578,-5.7482,-5.7482,-5.7481,0,0,-5.6766,-5.6813,-5.6872,-5.6919,-5.6988,-5.7023,-5.7038,-5.711,-5.7136,-5.7215,-5.7234,-5.7288,-5.7393,-5.7438,-5.7475,-5.7548,-5.7558,-5.7566,-5.7588,-5.7632,-5.7639,-5.7645,-5.7669,-5.7678,-5.7573,-5.7573,-5.7573,0,-5.6771,-5.6861,-5.6901,-5.6963,-5.7004,-5.7031,-5.7091,-5.7134,-5.7218,-5.7246,-5.7239,-5.7372,-5.7417,-5.7509,-5.7527,-5.7557,-5.7574,-5.7556,-5.7635,-5.7641,-5.7648,-5.7671,-5.7681,-5.7573,-5.7573,-5.7573,-5.7573,0,-5.6864,-5.6926,-5.6966,-5.7048,-5.7094,-5.7155,-5.7204,-5.7245,-5.7266,-5.7303,-5.7383,-5.744,-5.7512,-5.7536,-5.7556,-5.7631,-5.7625,-5.7626,-5.7611,-5.7656,-5.7678,-5.7688,-5.7573,-5.7573,-5.7573,-5.7573,0,0,-5.6902,-5.7008,-5.7022,-5.706,-5.714,-5.7188,-5.7252,-5.7323,-5.7357,-5.7417,-5.747,-5.7559,-5.7561,-5.7603,-5.763,-5.7669,-5.7722,-5.7665,-5.7668,-5.7672,-5.7807,-5.7804,-5.7813,-5.7731,-5.7733,-5.7734,-5.7801,0,-5.6961,-5.7074,-5.7113,-5.7206,-5.7264,-5.7293,-5.7348,-5.7403,-5.744,-5.7495,-5.7536,-5.7598,-5.7596,-5.7622,-5.7663,-5.7706,-5.7749,-5.7703,-5.778,-5.7782,-5.7759,-5.7826,-5.7822,-5.7882,-5.781,-5.7812,-5.7813,0,-5.7043,-5.7104,-5.7203,-5.7277,-5.7303,-5.7351,-5.7421,-5.7473,-5.7537,-5.7561,-5.761,-5.7634,-5.7702,-5.7686,-5.7779,-5.7747,-5.7782,-5.7809,-5.7812,-5.7818,-5.7797,-5.7831,-5.7902,-5.791,-5.7828,-5.7827,-5.7825,0,-5.7059,-5.7166,-5.7239,-5.7272,-5.736,-5.7393,-5.7432,-5.7494,-5.7535,-5.7596,-5.7623,-5.7692,-5.7728,-5.7781,-5.7823,-5.7808,-5.7913,-5.79,-5.7934,-5.7932,-5.7951,-5.7949,-5.8026,-5.7978,-5.7978,-5.7978,-5.7978,0,-5.7119,-5.7178,-5.7248,-5.7292,-5.736,-5.7406,-5.7471,-5.7512,-5.7567,-5.7621,-5.7651,-5.77,-5.7754,-5.7811,-5.7845,-5.7916,-5.7933,-5.7954,-5.7962,-5.795,-5.7947,-5.7971,-5.7967,-5.798,-5.798,-5.7979,-5.7979,0,-5.7146,-5.7196,-5.7277,-5.7355,-5.7376,-5.7422,-5.7489,-5.7534,-5.7574,-5.7641,-5.7659,-5.7721,-5.779,-5.7838,-5.7926,-5.7949,-5.8026,-5.8035,-5.8004,-5.8007,-5.8037,-5.8033,-5.813,-5.8144,-5.8089,-5.8089,-5.809,0,-5.7179,-5.7226,-5.7309,-5.7347,-5.7386,-5.7447,-5.7489,-5.7537,-5.758,-5.7658,-5.7693,-5.7764,-5.7823,-5.7931,-5.7984,-5.8052,-5.8061,-5.8091,-5.8071,-5.8058,-5.8059,-5.8055,-5.8059,-5.8092,-5.8092,-5.8093,-5.8093,0,-5.7233,-5.7256,-5.7316,-5.7385,-5.7435,-5.7492,-5.7549,-5.7578,-5.7637,-5.7684,-5.7755,-5.78,-5.7891,-5.7961,-5.8035,-5.8075,-5.8093,-5.81,-5.811,-5.8097,-5.8076,-5.8086,-5.8009,-5.8096,-5.8096,-5.8095,-5.8095,-5.8095,-5.7263,-5.7305,-5.7371,-5.7437,-5.7486,-5.7539,-5.7585,-5.7632,-5.7691,-5.7769,-5.7795,-5.7868,-5.7932,-5.8033,-5.8075,-5.8133,-5.8131,-5.8147,-5.8151,-5.8153,-5.8152,-5.807,-5.8147,-5.8147,-5.8147,-5.8147,-5.8147,0,-5.7316,-5.7361,-5.7421,-5.7501,-5.7553,-5.7569,-5.7633,-5.7676,-5.774,-5.7799,-5.7857,-5.7939,-5.8007,-5.8067,-5.8138,-5.8173,-5.8184,-5.819,-5.8187,-5.8195,-5.815,-5.8133,-5.8181,-5.8181,-5.8181,-5.8181,-5.8181,-5.818,-5.735,-5.7422,-5.7453,-5.7551,-5.7595,-5.7667,-5.7703,-5.7752,-5.78,-5.789,-5.7947,-5.7986,-5.8046,-5.8122,-5.8186,-5.8202,-5.8225,-5.8229,-5.8247,-5.8203,-5.8199,-5.8195,-5.8178,-5.8235,-5.8235,-5.8287,-5.8288,-5.8288]},{"header":{"parameterUnit":"m.s-1","parameterCategory":1,"la1":30.2991,"la2":30.254,"lo1":-89.0895,"lo2":-89.0444,"dy":0.0017,"dx":0.0017,"nx":28,"ny":28,"refTime":"2024-04-29T03:00:00:Z","depth":0,"parameterNumber":3,"parameterNumberName":"V-component_of_WINDS"},"data":[0,0,0,0,0,0,0,0,0,0,0,0,0,0,0,0,0,0,0,0,0,0,0,0,0,0,0,0,0,0,0,0,0,0,0,0,0,0,0,0,0,0,0,0,0,0,0,0,0,0,0,0,0,0,0,0,0,0,6.7513,6.7514,0,6.7562,6.7562,6.7563,6.7572,6.7571,6.7571,6.757,6.7615,6.7617,6.7618,0,0,0,0,0,0,0,0,0,0,0,0,0,6.7423,6.7425,6.7513,6.7514,6.7514,6.7562,6.7563,6.7563,6.7572,6.7571,6.7571,6.757,6.7615,6.7617,6.7619,0,0,0,0,0,0,0,0,0,0,0,0,0,6.7466,6.7425,6.7513,6.7524,6.7526,6.7562,6.7563,6.7563,6.7572,6.7571,6.7571,6.757,6.7614,6.7616,6.7619,6.7645,0,0,6.7626,6.7627,0,0,0,0,0,0,0,0,6.7464,6.7469,6.7522,6.7524,6.7525,6.756,6.7547,6.7591,6.7572,6.7554,6.757,6.757,6.7597,6.7601,6.7611,6.7647,6.7649,6.7626,6.7628,6.7629,6.7629,0,0,0,0,0,0,0,6.7461,6.7467,6.7532,6.7523,6.7525,6.7526,6.7531,6.7556,6.7578,6.7556,6.7556,6.7562,6.7598,6.7609,6.7612,6.765,6.7626,6.7628,6.763,6.7631,6.7712,6.7712,0,0,0,0,0,0,6.7456,6.7465,6.7531,6.7534,6.7493,6.7528,6.7534,6.7549,6.7578,6.7582,6.7563,6.7563,6.7605,6.7609,6.7614,6.7648,6.7629,6.7631,6.7632,6.7711,6.7712,6.7713,0,0,0,0,0,0,6.7454,6.7462,6.7529,6.75,6.7508,6.753,6.7547,6.7551,6.7562,6.7584,6.7587,6.757,6.7605,6.7611,6.7638,6.765,6.7632,6.7634,6.771,6.7711,6.7712,6.7716,0,0,0,0,0,0,6.7452,6.7461,6.7472,6.75,6.751,6.7553,6.7548,6.7552,6.7567,6.7567,6.7591,6.7595,6.7605,6.7635,6.764,6.7653,6.7636,6.7709,6.7711,6.7712,6.7715,6.7717,6.7719,0,0,0,0,0,6.7449,6.747,6.7473,6.7481,6.7524,6.7554,6.7559,6.7572,6.7567,6.7578,6.7592,6.7594,6.7647,6.7637,6.7644,6.7657,6.7709,6.771,6.7712,6.7714,6.7716,6.7719,0,0,0,0,0,0,6.744,6.7473,6.7477,6.7508,6.7528,6.7555,6.7569,6.7574,6.7594,6.7593,6.7607,6.7612,6.7639,6.7651,6.7639,6.7685,6.7678,6.7681,6.7677,6.7679,6.7681,6.7678,6.7638,0,0,0,0,0,6.7442,6.7465,6.7492,6.7517,6.7527,6.7547,6.756,6.7568,6.7589,6.7597,6.7613,6.7632,6.7653,6.7667,6.7687,6.7716,6.7722,6.7729,6.7731,6.7732,6.7735,6.7752,6.7756,6.7718,6.7718,6.7718,0,0,6.7446,6.7467,6.748,6.7516,6.7533,6.7555,6.7553,6.7577,6.7594,6.76,6.7628,6.764,6.7662,6.7691,6.7705,6.7702,6.7747,6.7734,6.7735,6.7737,6.7754,6.7758,6.7761,6.7719,6.7719,6.7719,0,0,6.7465,6.7483,6.7507,6.7524,6.7551,6.7564,6.757,6.7597,6.7606,6.7635,6.7641,6.766,6.7696,6.7712,6.7725,6.7752,6.7755,6.7759,6.7769,6.7786,6.7789,6.7792,6.7803,6.7806,6.7761,6.7761,6.7761,0,6.7466,6.7502,6.7518,6.7542,6.7558,6.7567,6.7591,6.7607,6.7637,6.7648,6.7644,6.7691,6.7706,6.774,6.7747,6.7757,6.7764,6.7756,6.7788,6.7791,6.7793,6.7804,6.7808,6.7761,6.7761,6.7761,6.7761,0,6.7503,6.7528,6.7543,6.7576,6.7593,6.7617,6.7635,6.7651,6.7658,6.7672,6.7701,6.772,6.7746,6.7754,6.776,6.7789,6.7787,6.7785,6.7778,6.7797,6.7807,6.7811,6.7762,6.7762,6.7762,6.7761,0,0,6.7516,6.756,6.7565,6.7581,6.7612,6.7631,6.7655,6.7683,6.7696,6.7717,6.7738,6.777,6.777,6.7784,6.7792,6.7807,6.783,6.7804,6.7805,6.7809,6.7864,6.7866,6.787,6.7832,6.7832,6.7833,6.7863,0,6.754,6.7586,6.7602,6.764,6.7663,6.7674,6.7695,6.7716,6.7729,6.775,6.7764,6.7787,6.7784,6.7794,6.7809,6.7824,6.7841,6.7822,6.7851,6.7852,6.7846,6.7876,6.7877,6.7904,6.7867,6.7867,6.7868,0,6.7573,6.7598,6.7639,6.767,6.768,6.7699,6.7727,6.7747,6.7771,6.778,6.7798,6.7805,6.783,6.7822,6.7857,6.7844,6.7857,6.7866,6.7867,6.7871,6.7861,6.7881,6.7913,6.7917,6.7874,6.7874,6.7873,0,6.7581,6.7624,6.7656,6.7668,6.7704,6.7718,6.7733,6.7756,6.7773,6.7796,6.7807,6.7831,6.7845,6.7864,6.7878,6.7871,6.7913,6.7905,6.792,6.792,6.7929,6.7928,6.7964,6.7936,6.7936,6.7936,6.7936,0,6.7606,6.7631,6.766,6.7679,6.7707,6.7725,6.7752,6.7767,6.7789,6.781,6.7819,6.7839,6.7856,6.7878,6.7889,6.7917,6.7923,6.793,6.7933,6.793,6.793,6.7939,6.7938,6.7937,6.7937,6.7936,6.7936,0,6.7619,6.7639,6.7674,6.7706,6.7715,6.7735,6.7762,6.778,6.7795,6.7822,6.7829,6.7852,6.7878,6.7894,6.7927,6.7934,6.7966,6.7967,6.7959,6.796,6.7975,6.7974,6.8019,6.8027,6.7992,6.7992,6.7993,0,6.7634,6.7654,6.7689,6.7706,6.7722,6.7748,6.7766,6.7783,6.7801,6.7831,6.7846,6.7874,6.7897,6.7939,6.7957,6.7982,6.7985,6.7999,6.7989,6.7986,6.7987,6.7986,6.7988,6.8001,6.8001,6.8001,6.8002,0,6.7659,6.7669,6.7695,6.7725,6.7747,6.7771,6.7794,6.7807,6.7829,6.7848,6.7877,6.7895,6.793,6.7957,6.7985,6.7999,6.8004,6.8005,6.801,6.8008,6.8002,6.8007,6.7964,6.8004,6.8004,6.8003,6.8003,6.8003,6.7674,6.7693,6.7722,6.7751,6.7772,6.7795,6.7815,6.7833,6.7858,6.789,6.7898,6.7929,6.7953,6.7991,6.8006,6.8029,6.8027,6.8034,6.8036,6.8038,6.8039,6.7999,6.8034,6.8034,6.8034,6.8034,6.8034,0,6.7701,6.7721,6.7747,6.7782,6.7805,6.7811,6.7838,6.7856,6.7884,6.7907,6.7931,6.7964,6.7992,6.8013,6.8041,6.8055,6.8059,6.8062,6.8062,6.8065,6.8039,6.8032,6.8059,6.8059,6.8059,6.8059,6.8059,6.8059,6.7717,6.7751,6.7764,6.7808,6.7827,6.7859,6.7875,6.7896,6.7915,6.7953,6.7977,6.7991,6.8014,6.8044,6.8069,6.8075,6.8085,6.8088,6.8094,6.8069,6.8067,6.8064,6.8058,6.809,6.809,6.8119,6.8119,6.812]}]]